Lexington Weather

Lexington, Massachusetts, USA

52°F
10/17/2021 9:31pm 
  • Lexington Conditions: Partly cloudy
  • Temperature: 52.3°F / 11.3°CColder 0.9°F than last hour.
  • Dew Point: 46.9°FDecreased 0.6°Fsince last hour.
  • Relative Humidity: 82%Increased 1.0% since last hour.
  • Wind: Calm, 10-min avg: Calm, gust: 3 mph
  • Barometer: 29.67 in Steady
  • Visibility: 10 miles
  • Rain Today: 0.35 in
  •   

Regional Weather Roundup
for Boston / Norton, MA

        
000
ASUS41 KBOX 180104
RWRBOX

REGIONAL WEATHER ROUNDUP
NATIONAL WEATHER SERVICE BOSTON/NORTON MA
900 PM EDT SUN OCT 17 2021

NOTE:  "FAIR" INDICATES FEW OR NO CLOUDS BELOW 12,000 FEET WITH NO 
SIGNIFICANT WEATHER AND/OR OBSTRUCTIONS TO VISIBILITY.

MAZALL-180200-
EASTERN MASSACHUSETTS
  
CITY           SKY/WX    TMP DP  RH WIND       PRES   REMARKS
BOSTON         PTCLDY    56  44  64 W12G21    29.71R                  
BEVERLY        CLEAR     53  44  71 W6        29.70R                  
LAWRENCE       CLEAR     52  45  77 SW7       29.72R                  
BEDFORD        PTCLDY    51  46  83 W5        29.71R                  
BLUE HILL      NOT AVBL                                               
NORWOOD        PTCLDY    53  45  74 W7        29.72R                  
MARSHFIELD     PTCLDY    52  46  82 VRB3      29.71R                  
PLYMOUTH       CLEAR     54  46  74 W8        29.72R                  
TAUNTON        CLOUDY    52  46  80 W3        29.73R                  
NEW BEDFORD    CLEAR     52  46  80 W6        29.72S                  
$$

MAZALL-180200-
CAPE COD AND THE ISLANDS
  
CITY           SKY/WX    TMP DP  RH WIND       PRES   REMARKS
FALMOUTH       PTCLDY    55  46  71 NW7       29.72R                  
HYANNIS        CLEAR     54  46  74 W6        29.71R                  
CHATHAM        CLEAR     53  46  77 VRB3      29.72R                  
PROVINCETOWN   CLEAR     58  48  69 W16G22    29.71R                  
NANTUCKET      CLEAR     59  47  64 W10       29.72R                  
MARTHAS VNYRD  CLEAR     57  46  66 NW7       29.73R                  
$$
 
MAZALL-180200-
CENTRAL AND WESTERN MASSACHUSETTS
  
CITY           SKY/WX    TMP DP  RH WIND       PRES   REMARKS
WORCESTER      CLEAR     48  44  86 W12       29.73R                  
FITCHBURG      CLEAR     51  43  74 NW7       29.73R                  
ORANGE         CLEAR     51  43  74 W6        29.74R                  
SPRINGFIELD    MOCLDY    53  41  64 W14       29.75R                  
WESTFIELD      MOCLDY    52  43  71 NW7       29.76S                  
NORTH ADAMS    MOCLDY    51  42  71 W13G22    29.76R                  
PITTSFIELD     CLOUDY    48  41  76 W8        29.76R                  
$$
 
RIZALL-180200-
RHODE ISLAND
  
CITY           SKY/WX    TMP DP  RH WIND       PRES   REMARKS
PROVIDENCE     PTCLDY    54  46  74 W7        29.75R                  
NEWPORT        NOT AVBL                                               
BLOCK ISLAND   CLOUDY    56  45  66 NW15G32   29.77R                  
SMITHFIELD     CLEAR     50  45  83 W8        29.75R                  
WESTERLY       LGT RAIN  55  44  66 VRB6      29.77R                  
$$
 
CTZALL-180200-
CONNECTICUT
  
CITY           SKY/WX    TMP DP  RH WIND       PRES   REMARKS
BRADLEY INTL   MOCLDY    53  44  71 W8        29.77R                  
HARTFORD       CLOUDY    55  43  63 NW6       29.79R                  
BRIDGEPORT     PTCLDY    54  45  71 NW6       29.80R                  
DANBURY        CLEAR     52  44  74 W3        29.81R                  
GROTON         CLOUDY    54  44  69 NW12      29.77R                  
NEW HAVEN      CLOUDY    58  46  64 VRB5      29.80R                  
CHESTER        MOCLDY    52  45  76 NW9       29.79R                  
MERIDEN        CLOUDY    54  41  61 NW7       29.79R                  
WILLIMANTIC    CLOUDY    52  45  77 W3        29.77S                  
OXFORD         CLOUDY    50  43  77 VRB5      29.80R                  
$$

MEZ002-015-021-024-NHZ003-005-008-011-012-014-VTZ005-008-180200-
NORTHERN NEW ENGLAND
  
CITY           SKY/WX    TMP DP  RH WIND       PRES   REMARKS
PORTLAND ME    CLEAR     50  43  77 SW5       29.68R                  
BANGOR ME      CLOUDY    53  44  71 W5        29.63R                  
CONCORD NH     MOCLDY    52  44  74 NW6       29.70R                  
MANCHESTER NH  PTCLDY    54  44  69 VRB3      29.69R                  
NASHUA NH      PTCLDY    52  47  83 W5        29.72R                  
PORTSMOUTH NH  PTCLDY    51  44  76 W3        29.70R                  
JAFFREY NH     PTCLDY    48  44  86 CALM      29.72R                  
KEENE NH       MOCLDY    47  46  97 CALM      29.73R                  
BURLINGTON VT  LGT RAIN  53  45  74 NW10      29.73R                  
MT. WASHINGTON NOT AVBL                                               
$$

NYZ052-076-180200-
EASTERN NEW YORK
  
CITY           SKY/WX    TMP DP  RH WIND       PRES   REMARKS
ALBANY         CLOUDY    52  43  71 W6        29.78S                  
NEW YORK CITY  PTCLDY    58  43  57 W14       29.83R                  
$$
 
ANZALL-180200-
MARINE OBSERVATIONS
  
STATION/POSITION TIME  TEMP    WIND        PRES    VSBY  WAVE
                       AIR SEA DIR/SP/G                  HT/PER
                 (UTC) (F)     (DEG/KT/KT) (MB)    (MI)  (FT/S)
BOSTON BUOY      0040      63  280/ 16/ 21 1005.9R
BUZZARDS BAY     0000          290/ 19/ 20 1007.5R
NANTUCKET SOUND  0050   62     300/ 17/ 19   N/A           2/ 3
MASS BAY-STELLWA 0004   59     290/ 12/ 16 1004.3R  1 7/8  2/ 6
ISLE OF SHOALS   0000   58     290/ 11/ 13 1004.4R
S OF BLOCK IS    0026      65                N/A           4/ 6
$$

......................KEY.........................
  SKY/WX - SKY CONDITION/PRESENT WEATHER
  TMP    - TEMPERATURE IN FAHRENHEIT
  DWPT   - DEWPOINT IN FAHRENHEIT
  RH     - RELATIVE HUMIDITY IN PERCENT
  WIND   - DIRECTION AND SPEED IN MPH
  PRES   - MEAN SEA LEVEL PRESSURE IN INCHES OF HG
  WCI    - WIND CHILL INDEX
  VSB    - VISIBILITY IN MILES
  HX     - HEAT INDEX
  TC     - TEMPERATURE IN CELSIUS
  VRB    - VARIABLE WIND DIRECTION
  N/A    - NOT AVAILABLE
  
      

Other recent Regional Weather Roundups

Sun Oct 17, 8:04pm

Sun Oct 17, 7:04pm

Sun Oct 17, 6:04pm

Sun Oct 17, 5:04pm

Sun Oct 17, 4:04pm

Sun Oct 17, 3:04pm

Sun Oct 17, 2:04pm

Sun Oct 17, 1:04pm

Sun Oct 17, 12:04pm

Sun Oct 17, 11:04am

Sun Oct 17, 10:04am

Sun Oct 17, 9:04am

Sun Oct 17, 8:04am

Sun Oct 17, 7:04am

Sun Oct 17, 6:04am

Sun Oct 17, 5:04am

Sun Oct 17, 4:04am

Sun Oct 17, 3:04am

Sun Oct 17, 2:04am

Sun Oct 17, 1:04am

Sun Oct 17, 12:04am

Sat Oct 16, 11:04pm

Sat Oct 16, 10:04pm

Sat Oct 16, 9:04pm

Sat Oct 16, 8:04pm

Sat Oct 16, 7:04pm

Sat Oct 16, 6:04pm

Sat Oct 16, 5:04pm

Sat Oct 16, 4:04pm

Sat Oct 16, 3:04pm

Sat Oct 16, 2:04pm

Sat Oct 16, 1:04pm

Sat Oct 16, 12:04pm

Sat Oct 16, 11:04am

Sat Oct 16, 10:04am

Sat Oct 16, 9:04am

Sat Oct 16, 8:04am

Sat Oct 16, 7:04am

Sat Oct 16, 6:04am

Sat Oct 16, 5:04am

Sat Oct 16, 4:04am

Sat Oct 16, 3:04am

Sat Oct 16, 2:04am

Sat Oct 16, 1:04am

Sat Oct 16, 12:04am

Fri Oct 15, 11:04pm

Fri Oct 15, 10:04pm

Fri Oct 15, 9:04pm

Fri Oct 15, 8:04pm

Fri Oct 15, 7:04pm

Fri Oct 15, 6:04pm

Fri Oct 15, 5:04pm

Fri Oct 15, 4:04pm

Fri Oct 15, 3:04pm

Fri Oct 15, 2:05pm

Fri Oct 15, 1:05pm

Fri Oct 15, 12:04pm

Fri Oct 15, 11:05am

Fri Oct 15, 10:04am

Fri Oct 15, 9:04am

Fri Oct 15, 8:04am

Fri Oct 15, 7:04am

Fri Oct 15, 6:04am

Fri Oct 15, 5:04am

Fri Oct 15, 4:04am

Fri Oct 15, 3:05am

Fri Oct 15, 2:04am

Fri Oct 15, 1:04am

Fri Oct 15, 12:04am

Thu Oct 14, 11:04pm

Thu Oct 14, 10:04pm

Thu Oct 14, 9:04pm

Thu Oct 14, 8:04pm

Thu Oct 14, 7:04pm

Thu Oct 14, 6:04pm

Thu Oct 14, 5:04pm

Thu Oct 14, 4:04pm

Thu Oct 14, 3:04pm

Thu Oct 14, 2:04pm

Thu Oct 14, 1:04pm

Thu Oct 14, 12:04pm

Thu Oct 14, 11:04am

Thu Oct 14, 10:04am

Thu Oct 14, 9:04am

Thu Oct 14, 8:04am

Thu Oct 14, 7:04am

Thu Oct 14, 6:04am

Thu Oct 14, 5:04am

Thu Oct 14, 4:04am

Thu Oct 14, 3:04am

Thu Oct 14, 2:04am

Thu Oct 14, 1:04am

Thu Oct 14, 12:04am

Wed Oct 13, 11:04pm

Wed Oct 13, 10:04pm

Wed Oct 13, 9:04pm

Wed Oct 13, 8:04pm

Wed Oct 13, 7:04pm

Wed Oct 13, 6:04pm

Wed Oct 13, 5:04pm

Wed Oct 13, 4:04pm

Wed Oct 13, 3:04pm

Wed Oct 13, 2:04pm

Wed Oct 13, 1:04pm

Wed Oct 13, 12:04pm

Wed Oct 13, 11:04am

Wed Oct 13, 10:04am

Wed Oct 13, 9:04am

Wed Oct 13, 8:04am

Wed Oct 13, 7:04am

Wed Oct 13, 6:04am

Wed Oct 13, 5:04am

Wed Oct 13, 4:04am

Wed Oct 13, 3:04am

Wed Oct 13, 2:04am

Wed Oct 13, 1:04am

Wed Oct 13, 12:04am

Tue Oct 12, 11:04pm

Tue Oct 12, 10:04pm

Tue Oct 12, 9:04pm

Tue Oct 12, 8:04pm

Tue Oct 12, 7:04pm

Tue Oct 12, 6:04pm

Tue Oct 12, 5:04pm

Tue Oct 12, 4:04pm

Tue Oct 12, 3:04pm

Tue Oct 12, 2:04pm

Tue Oct 12, 1:04pm

Tue Oct 12, 12:04pm

Tue Oct 12, 11:05am

Tue Oct 12, 10:04am

Tue Oct 12, 9:04am

Tue Oct 12, 8:04am

Tue Oct 12, 7:04am

Tue Oct 12, 6:04am

Tue Oct 12, 5:04am

Tue Oct 12, 4:04am

Tue Oct 12, 3:04am

Tue Oct 12, 2:04am

Tue Oct 12, 1:04am

Tue Oct 12, 12:04am

Mon Oct 11, 11:04pm

Mon Oct 11, 10:04pm

Mon Oct 11, 9:04pm

Mon Oct 11, 8:04pm

Mon Oct 11, 7:04pm

Mon Oct 11, 6:04pm

Mon Oct 11, 5:04pm

Mon Oct 11, 4:04pm

Mon Oct 11, 3:04pm

Mon Oct 11, 2:04pm

Mon Oct 11, 1:04pm

Mon Oct 11, 12:04pm

Mon Oct 11, 11:04am

Mon Oct 11, 10:04am

Mon Oct 11, 9:04am

Mon Oct 11, 8:04am

Mon Oct 11, 7:04am

Mon Oct 11, 6:04am

Mon Oct 11, 5:04am

Mon Oct 11, 4:04am

Mon Oct 11, 3:04am

Mon Oct 11, 2:04am

Mon Oct 11, 1:04am

Mon Oct 11, 12:05am

Sun Oct 10, 11:04pm

Sun Oct 10, 10:04pm

Meta data:

ID: 01da67f0-22f6-4399-89fc-1d90159ffd95
Link: https://api.weather.gov/products/01da67f0-22f6-4399-89fc-1d90159ffd95